Regional Weather Roundup
Issued by NWS Upton, NY

Home | Current Version | Previous Version | Text Only | Print | Product List | Glossary On
Versions: 1 2 3 4 5 6 7 8 9 10 11 12 13 14 15 16 17 18 19 20 21 22 23 24 25 26 27 28 29 30 31 32 33 34
000
ASUS41 KOKX 092308
RWROKX

REGIONAL WEATHER ROUNDUP
NATIONAL WEATHER SERVICE NEW YORK NY
600 PM EST FRI DEC 09 2016

NOTE: "FAIR" INDICATES FEW OR NO CLOUDS BELOW 12,000 FEET WITH NO
SIGNIFICANT WEATHER AND/OR OBSTRUCTIONS TO VISIBILITY.

NYZ071-072-176-178-NJZ106-104-100000-
NEW YORK CITY METRO AREA

CITY           SKY/WX    TMP DP  RH WIND       PRES   REMARKS
Central Park   MOCLDY    35  12  38 NW10G20   30.23R WCI  27
Wall St Helipt CLEAR     37  19  48 VRB5      30.23R WCI  33
Bronx Bot Gard NOT AVBL
LaGuardia APRT PTCLDY    37  18  46 NW24G33   30.21R WCI  26
Kennedy INTL   MOCLDY    37  12  35 NW25G35   30.22R WCI  25
Breezy Point     N/A     34 N/A N/A NW16G28     N/A  WCI  23
Newark/Liberty PTCLDY    35  12  38 NW18G30   30.22R WCI  24
Teterboro      MOCLDY    35  11  36 NW16G29   30.22R WCI  25
$$

NYZ177-179-078>081-100000-
LONG ISLAND NEW YORK

CITY           SKY/WX    TMP DP  RH WIND       PRES   REMARKS
Jones Beach      N/A     36 N/A N/A NW22G32     N/A  WCI  24
Matinecock PT    N/A     36 N/A N/A NW30G39     N/A  WCI  22
Farmingdale    CLEAR     34  13  41 NW15G25   30.19R WCI  24
MacArthur/ISP  PTCLDY    33  12  41 NW21G31   30.18R WCI  21
Shirley        CLEAR     33  13  43 NW16G23   30.17R WCI  23
Westhampton    PTCLDY    33  12  41 W13       30.16R WCI  24
Southampton    NOT AVBL
Bridgehampton  NOT AVBL
East Hampton   CLOUDY    35  16  47 NW9G17    30.13R WCI  27
Montauk          N/A     35  18  49 NW14G24   30.13R WCI  26
$$

NYZ052-065-067-100000-
HUDSON VALLEY

CITY           SKY/WX    TMP DP  RH WIND       PRES   REMARKS
White Plains   CLEAR     31  11  43 NW24G35   30.17R WCI  17
Newburgh       PTCLDY    28  16  59 NW17G29   30.20R WCI  16
Montgomery     MOCLDY    30  12  47 NW10G18   30.21R WCI  21
Poughkeepsie   MOCLDY    29  11  47 W15       30.19R WCI  18
Albany         MOCLDY    27  10  49 NW9       30.20R WCI  18
$$

NJZ001-105-106-008-010-013-015-019>022-104-100000-
NEW JERSEY

CITY           SKY/WX    TMP DP  RH WIND       PRES   REMARKS
Newark/Liberty PTCLDY    35  12  38 NW18G30   30.22R WCI  24
Teterboro      MOCLDY    35  11  36 NW16G29   30.22R WCI  25
Caldwell       PTCLDY    34  11  38 NW14G29   30.24R WCI  25
Somerville     PTCLDY    33  17  51 VRB3      30.23R
Linden           N/A    N/A N/A N/A NW16G29   30.23R
Sussex         CLEAR     30  11  45 VRB5      30.22R WCI  25
Andover          N/A     30  13  49 N5        30.23R WCI  25
Trenton        PTCLDY    33  21  61 NW9       30.25R WCI  25
Millville      PTCLDY    34  18  52 W13       30.31R WCI  25
Atlantic City  CLEAR     34  16  47 W6        30.28R WCI  29
Wrightstown    PTCLDY    33  21  60 NW8       30.23R WCI  27
Toms River     PTCLDY    34  19  54 NW12      30.25R WCI  25
Belmar         PTCLDY    33  17  51 W16       30.23R WCI  23
$$

PAZ047>061-062-071-100000-
EASTERN PENNSYLVANIA

CITY           SKY/WX    TMP DP  RH WIND       PRES   REMARKS
Philadelphia   MOCLDY    36  16  44 W15       30.30R WCI  27
Allentown      PTCLDY    32  18  56 W8        30.25R WCI  25
Scranton       CLEAR     27  16  63 NW8       30.23R WCI  19
$$

CTZ002-004>006-009-010-012-RIZ004-006-007-MAZ004-011-015-100000-
SOUTHERN NEW ENGLAND
 IN CT

CITY           SKY/WX    TMP DP  RH WIND       PRES   REMARKS
Bradley INTL   PTCLDY    28   9  44 NW17G24   30.16R WCI  16
Hartford       CLEAR     30  12  47 NW12G20   30.17R WCI  20
Danbury        CLEAR     30  10  43 VRB3      30.17R
Wtrbury/Oxford PTCLDY    30   9  40 N13G22    30.15R WCI  20
Bridgeport     PTCLDY    35  11  36 NW9       30.18R WCI  28
Meriden        CLEAR     32  12  43 NW14G21   30.17R WCI  22
New Haven      MOCLDY    33  13  43 NW12G20   30.16R WCI  24
Chester          N/A     30  14  51 N10G17    30.13R WCI  21
Groton         CLEAR     34  13  41 NW16G23   30.13R WCI  24
Wilimantic     CLEAR     31  11  43 NW12G24   30.14R WCI  22

 IN RI

CITY           SKY/WX    TMP DP  RH WIND       PRES   REMARKS
Providence     PTCLDY    31  10  41 NW15      30.10R WCI  20
Block Island   CLEAR     33  16  49 NW15G26   30.11R WCI  23
Westerly       CLEAR     32  11  41 NW10G20   30.12R WCI  24
 IN MA

CITY           SKY/WX    TMP DP  RH WIND       PRES   REMARKS
Boston         PTCLDY    31   9  39 NW14G22   30.08R WCI  21
Worcester      PTCLDY    24   8  50 W8G16     30.05R WCI  15
Westfield      CLEAR     27  10  49 NW16G24   30.14R WCI  15
Provincetown   MOCLDY    34  16  47 NW18G29   30.05R WCI  23
Nantucket      CLOUDY    34  16  47 W15G22    30.05R WCI  24
$$

ANZ330-335-338-340-345-350-353-355-100000-
COASTAL MARINE OBSERVATIONS


STATION/POSITION TIME  SKY/WX   TEMP    WIND        PRES    VSBY  WAVE
                                AIR SEA DIR/SP/G                  HT/PER
                 (UTC)          (F)     (DEG/KT/KT) (MB)    (MI)  (FT/S)
NY HARB ENTRANCE 2150            40 51  300/ 25/ 31 1021.0          5/ 5
20 S FIRE ISLAND 2250            40 52  320/ 23/ 31 1021.2          7/ 6
GREAT SOUTH BAY  2215            36 41                N/A
23 SSW MONTAUK P 2150            39 54  290/ 23/ 29 1019.0          5/ 6
15 E BARNEGAT LI 2230               52                N/A           5/ 5
HUDSON CANYON    2150            42 56              1020.3          9/ 7
KINGS POINT      2236            36 45              1022.5
EXECUTION ROCKS  2245            36     310/ 17/ 27   N/A
CENTRAL LI SOUND NOT AVBL
EASTERN LI SOUND NOT AVBL
ROBBINS REEF     2236            36     320/ 23/ 29 1022.8
$$


>>>>>>>>>>>>>>>>>>>>>>>>>>>> KEY <<<<<<<<<<<<<<<<<<<<<<<<<<<
>                                                          <
>     SKY/WX - Sky Condition/Present Weather               <
>     TMP    - Temperature in Fahrenheit                   <
>     DP     - Dew Point in Fahrenheit                     <
>     RH     - Relative Humidity in Percent                <
>     WIND   - Direction (from) and Speed in MPH           <
>     PRES   - Mean Sea Level Pressure (inches of Hg)      <
>     WCI    - Wind Chill Index                            <
>     VSB    - VISIBILITY IN MILES                         <
>     HX     - HEAT INDEX                                  <
>     TC     - TEMPERATURE IN CELSIUS                      <
>     VRB    - VARIABLE WIND DIRECTION                     <
>                                                          <
>>>>>>>>>>>>>>>>>>>>>>>>>>>> KEY <<<<<<<<<<<<<<<<<<<<<<<<<<<




USA.gov is the U.S. government's official web portal to all federal, state and local government web resources and services.